GFSGL_700_spd_057.txt.gz
Wind_Speed
29 27 28 28 25 25 23 21 18 16 16 16 15 13 9 8 9 10 14 16 15 14 13 12 9 8 7 6 6 7 8 9 10 13 13 12 9 11 13 11 12 14 13
27 30 29 29 29 28 27 24 22 19 18 18 19 18 13 10 13 13 13 16 18 18 17 17 14 15 13 13 12 12 12 14 15 14 16 15 16 16 16 16 18 18 17
26 29 31 30 30 30 30 27 25 24 23 23 23 23 19 16 15 16 15 16 20 21 20 20 20 21 20 19 19 17 16 19 20 20 22 24 23 22 21 22 20 21 22
22 22 23 24 27 29 28 28 27 22 23 25 26 26 26 21 17 17 19 18 20 22 21 22 24 26 25 24 26 26 24 24 26 27 27 29 30 28 28 26 25 25 23
25 26 24 22 21 21 22 24 25 23 18 19 23 25 27 25 19 17 19 18 20 21 23 24 25 26 28 30 30 31 33 33 33 35 35 33 33 33 32 30 31 30 32
22 23 24 26 27 24 21 21 22 22 21 18 18 20 20 20 18 15 16 19 20 21 22 25 27 28 29 31 33 33 34 36 40 41 41 41 38 36 35 35 34 36 38
18 19 19 22 23 23 24 25 25 23 21 21 20 18 16 14 13 12 12 15 17 18 18 21 24 26 28 30 31 33 35 37 40 42 45 46 46 44 41 40 36 44 50
19 21 18 16 18 23 24 25 26 26 25 24 23 21 18 16 15 15 16 19 21 21 19 18 22 23 25 28 30 32 32 35 36 40 43 44 45 44 42 38 36 28 41
23 22 21 19 16 17 25 27 26 27 27 26 26 24 22 20 19 21 23 26 27 27 25 27 30 30 30 34 37 38 38 39 40 41 44 48 49 47 47 49 47 45 31
37 27 21 20 19 17 20 27 28 29 30 30 29 28 27 25 24 24 28 32 34 35 35 34 35 36 39 40 43 46 46 46 46 48 50 52 52 54 57 55 54 31 25
22 26 28 25 23 21 19 23 28 31 31 32 33 32 31 29 29 30 32 35 37 40 40 40 41 42 43 46 49 52 53 52 51 48 53 52 49 51 52 45 48 31 30
33 36 35 31 26 25 24 22 25 30 34 34 34 33 32 32 31 31 33 37 41 41 39 40 40 41 42 42 44 52 54 55 51 54 53 53 53 54 49 53 57 24 20
36 34 29 30 32 31 29 29 28 28 31 35 36 34 32 33 32 32 32 34 38 39 39 39 37 35 36 37 40 46 48 49 53 58 55 56 55 53 50 43 55 22 15
39 37 37 35 34 33 34 35 33 32 32 34 35 34 34 33 32 33 32 34 38 38 35 33 32 33 34 33 38 41 45 51 54 55 56 54 49 50 47 43 20 16 19
48 48 46 37 34 35 35 35 35 34 31 33 34 35 35 34 33 31 35 37 36 31 29 29 27 26 28 34 36 40 47 53 52 46 48 49 52 56 39 17 10 15 15
33 32 35 38 37 38 36 34 35 35 33 30 35 38 38 36 35 37 37 33 29 26 28 26 26 28 32 36 39 42 46 51 49 43 44 40 26 12 18 18 14 18 18
32 28 30 34 38 39 35 32 32 35 32 31 33 38 40 39 39 36 30 28 29 29 26 26 28 31 35 37 39 40 43 44 40 32 29 19 22 16 13 11 7 12 17
30 30 27 30 38 41 37 34 32 32 33 35 33 32 34 37 35 31 30 31 29 27 26 28 31 34 36 37 38 38 39 37 32 25 26 25 22 16 12 11 16 15 15
28 30 31 28 33 39 37 36 36 34 31 32 32 32 32 29 27 30 31 29 28 27 28 31 32 34 34 34 34 35 31 25 22 17 18 13 8 9 11 12 19 14 14
25 29 29 31 29 33 40 39 36 31 29 26 25 28 28 31 30 29 28 28 27 29 30 31 30 29 30 31 29 21 16 12 11 7 8 10 17 11 13 15 14 14 13
31 29 30 31 32 32 33 36 37 34 33 30 29 28 27 27 28 29 28 29 30 30 30 28 27 25 23 20 16 16 12 9 6 8 12 13 14 7 9 11 12 12 12
33 31 34 36 37 37 35 37 38 39 36 32 28 27 28 28 28 28 28 28 28 27 27 24 21 17 13 13 12 11 10 8 7 7 11 13 14 14 12 11 10 12 12
32 34 37 35 36 40 40 41 40 38 34 30 30 29 29 28 26 26 25 24 23 22 19 16 12 11 13 14 14 14 12 11 12 14 15 16 14 13 12 13 14 14 13
31 31 38 39 40 40 40 39 38 36 34 33 31 26 24 22 20 19 17 17 16 15 14 14 15 16 16 15 16 17 17 16 16 15 14 14 14 15 15 14 15 15 14
28 29 31 32 33 33 33 30 28 26 22 18 16 18 20 20 21 19 20 20 19 18 19 20 20 21 19 19 19 18 17 16 16 16 16 16 17 16 16 16 16 19 20
34 34 27 22 24 19 17 18 17 16 15 15 16 16 17 17 18 17 19 21 23 24 24 24 23 23 21 21 21 20 19 18 18 19 19 19 18 18 20 22 26 22 23

GFSGL_700_spd_060.txt.gz
Wind_Speed
31 31 31 30 29 28 26 23 20 18 15 12 10 9 7 6 6 6 9 14 13 13 12 12 11 11 10 8 8 7 7 9 9 11 11 9 9 12 13 13 13 13 15
29 29 30 29 29 30 28 25 23 20 19 16 15 13 11 10 9 7 8 12 15 15 14 15 15 16 14 14 14 12 13 14 15 14 18 18 19 19 19 19 19 19 19
32 31 32 32 31 30 28 27 26 23 21 21 20 17 15 14 12 11 11 12 13 16 17 19 19 22 20 20 20 20 19 19 22 22 21 24 25 26 27 27 27 25 23
33 33 33 31 30 30 28 27 27 25 25 25 23 22 21 19 17 16 16 15 15 16 18 21 21 24 24 25 26 27 27 28 29 30 30 30 33 33 35 34 32 28 25
23 24 24 26 28 28 29 29 28 28 27 25 26 25 23 21 19 17 17 17 17 18 18 20 22 23 24 26 28 29 32 33 35 36 38 37 38 38 39 36 36 34 33
23 21 19 19 20 20 20 21 25 28 26 24 24 23 21 18 15 15 16 19 19 19 19 19 20 20 21 23 25 27 30 32 35 38 39 41 41 41 39 40 40 40 41
21 20 21 23 24 24 23 23 21 22 24 23 22 20 18 14 13 13 13 16 16 16 16 16 17 18 19 21 22 25 28 30 31 34 37 37 36 36 38 40 41 43 44
15 17 17 19 19 21 24 25 26 24 24 23 22 20 20 18 16 15 14 16 17 15 14 15 18 21 24 26 29 31 33 36 37 40 42 41 42 41 45 47 45 44 44
23 22 16 15 16 19 24 25 24 26 27 27 26 26 24 23 21 21 21 21 20 20 20 20 23 27 31 34 37 37 39 41 43 45 46 45 45 47 49 49 52 52 57
27 22 17 19 18 16 15 20 25 28 29 31 31 30 29 28 26 25 26 26 25 25 26 27 29 31 35 38 40 41 40 43 47 46 49 49 47 48 47 48 49 49 62
33 27 23 22 21 19 17 16 19 28 32 33 32 31 31 31 31 30 29 29 29 31 30 31 33 36 37 39 41 43 40 40 43 46 45 47 48 49 50 51 52 51 60
32 25 22 26 29 28 24 21 19 20 29 34 33 32 32 32 33 32 32 32 33 33 32 33 35 36 36 37 37 35 35 39 41 43 49 51 51 52 53 50 51 53 51
34 31 29 30 32 30 30 29 26 23 22 26 33 34 34 34 34 35 34 35 35 34 33 34 37 37 38 34 29 31 34 39 42 45 52 50 53 51 49 52 45 66 44
35 36 36 36 35 32 30 30 34 33 30 27 25 27 32 34 33 34 36 36 36 36 36 38 38 37 31 27 28 30 33 39 42 48 52 54 48 50 48 43 48 21 15
34 35 38 40 40 39 38 36 34 35 35 34 32 31 30 32 32 35 36 35 35 37 38 37 35 28 26 27 26 30 35 40 45 50 53 55 47 42 41 33 12 16 12
45 44 44 46 47 47 46 46 40 35 33 32 33 35 33 31 33 35 36 37 37 38 36 35 29 26 26 26 29 32 36 41 46 49 49 44 37 27 6 17 15 4 12
41 45 49 48 48 43 39 38 40 37 35 32 33 34 34 34 32 36 38 38 37 35 32 26 29 28 28 30 33 35 38 40 43 42 40 35 24 14 15 17 5 6 11
27 34 40 40 40 37 34 35 36 38 37 34 31 32 35 34 32 34 37 37 36 35 31 30 29 29 30 32 33 35 38 38 37 32 27 27 19 15 9 5 6 11 14
15 22 30 35 38 37 33 31 35 38 37 36 35 32 32 34 36 34 34 32 32 30 29 28 30 31 32 33 35 36 37 34 27 22 20 15 7 4 6 7 13 15 16
29 20 21 32 35 37 34 30 32 36 38 37 35 30 26 27 30 30 28 28 28 28 29 29 30 31 32 34 36 35 32 23 19 17 13 9 8 8 8 12 16 14 10
40 35 31 25 29 36 34 33 30 28 33 36 32 28 25 25 26 27 30 29 29 30 31 29 30 31 34 34 34 30 22 17 13 10 8 9 11 10 10 12 17 16 15
49 49 46 42 34 30 34 33 32 31 27 30 32 30 28 30 32 32 31 30 31 30 29 30 31 32 31 30 26 21 18 16 13 9 8 11 12 13 9 11 14 16 16
58 57 56 46 43 36 30 30 32 33 33 33 33 32 34 34 33 31 30 30 30 30 29 29 28 27 25 22 20 19 17 17 16 13 13 14 16 18 17 15 15 16 15
59 50 43 36 35 38 37 38 39 40 39 41 40 40 40 38 37 36 33 32 30 28 27 26 24 23 21 20 20 20 19 18 19 19 19 19 20 22 21 20 17 17 16
36 28 29 35 33 37 41 40 38 40 40 41 40 34 31 30 30 29 27 25 25 25 26 26 25 24 23 23 23 22 21 21 21 21 21 20 21 21 19 19 20 20 20
33 37 31 34 38 43 37 33 33 33 34 35 33 29 27 24 22 23 23 23 23 23 22 21 22 22 22 23 22 22 21 22 22 22 22 21 21 21 22 23 21 22 18

GFSGL_700_spd_063.txt.gz
Wind_Speed
33 32 32 34 33 32 30 27 24 22 21 18 15 13 11 8 9 10 15 17 15 14 14 13 13 13 10 9 9 8 8 9 9 10 11 13 12 14 16 18 19 20 21
30 31 32 33 34 34 33 30 27 24 22 20 19 16 13 11 11 9 11 14 17 17 16 17 16 16 15 15 15 14 15 16 18 17 18 20 22 23 23 25 24 26 25
30 31 32 33 35 35 33 31 29 26 25 22 21 18 15 13 13 13 12 12 15 19 20 20 19 22 21 20 20 21 21 23 26 28 26 26 29 32 33 32 31 32 32
29 31 33 33 33 33 32 32 30 28 28 25 22 20 18 16 16 17 17 16 16 18 20 22 23 24 24 24 24 25 27 28 30 33 35 35 35 35 39 40 39 37 36
27 31 32 32 33 32 31 31 30 31 29 27 26 24 22 20 20 20 20 19 19 19 20 21 22 23 23 26 27 27 29 31 33 35 37 37 38 38 39 39 41 40 41
29 30 28 29 29 29 28 28 28 28 29 29 28 27 24 22 19 18 19 20 21 22 20 20 19 20 21 22 24 24 25 25 27 29 32 35 34 36 36 38 42 44 45
16 16 18 18 19 20 21 24 26 26 26 27 26 26 26 22 17 14 15 17 20 20 19 17 17 17 17 16 16 19 23 27 31 34 39 40 41 41 44 45 47 49 51
20 20 19 19 19 19 21 21 21 21 23 23 23 23 23 19 17 14 13 16 18 16 14 13 14 15 17 19 23 27 31 34 38 41 45 45 47 42 41 42 44 46 49
20 20 18 16 15 17 19 20 20 24 26 25 23 23 22 21 20 19 20 21 21 20 19 19 19 20 22 27 31 34 35 37 39 39 41 42 39 34 32 37 43 46 47
18 16 15 15 14 14 13 15 17 22 24 26 29 29 28 27 26 26 26 26 26 25 23 24 24 25 28 31 33 35 36 35 35 35 36 39 41 37 38 39 42 45 51
25 30 23 20 19 18 16 16 18 22 26 29 30 31 31 31 31 31 31 32 30 29 28 28 29 31 33 35 36 37 35 34 33 33 38 37 38 44 49 50 47 47 47
34 32 36 29 26 23 23 21 19 19 21 28 32 32 33 32 32 34 35 35 36 35 33 33 33 34 36 38 37 35 34 31 30 35 39 38 43 50 54 53 49 45 44
40 35 33 31 30 26 26 26 24 21 19 19 21 29 33 33 34 36 37 38 38 38 36 36 37 36 37 37 36 35 33 28 31 36 38 42 46 51 52 49 46 42 36
39 38 34 36 37 34 30 29 27 25 24 23 23 21 22 26 32 36 38 39 40 39 37 37 36 36 37 36 34 32 29 29 31 35 40 46 50 49 46 41 35 17 14
35 37 38 39 40 40 39 35 33 30 29 26 25 27 27 27 27 29 33 37 40 40 38 36 35 35 35 32 31 27 28 29 32 36 41 46 50 45 39 33 11 17 14
32 31 34 39 42 43 43 41 38 36 34 35 34 32 29 29 31 33 32 32 36 39 38 34 34 34 33 33 28 27 29 30 33 36 41 45 48 39 34 24 18 19 9
34 40 40 41 42 42 42 42 41 42 42 44 44 38 33 32 32 34 35 33 34 36 36 35 35 33 31 27 28 30 31 31 33 37 41 45 41 31 30 19 15 9 7
23 26 33 43 48 50 51 51 51 51 49 44 40 40 38 34 31 33 35 35 35 35 36 35 33 32 30 29 30 31 31 32 34 37 41 44 33 27 22 12 5 4 8
25 23 25 29 32 38 45 45 43 40 38 37 38 38 38 35 33 32 32 35 36 34 33 33 32 31 30 30 31 31 32 33 34 36 41 35 27 25 18 10 10 9 10
35 34 30 24 21 23 30 34 35 36 37 35 35 37 37 36 37 35 31 31 33 34 33 32 31 30 30 31 32 31 32 33 34 37 34 26 22 19 18 13 13 12 11
40 41 41 39 35 31 25 25 33 36 39 36 33 35 37 37 34 31 29 29 28 28 29 30 30 31 32 32 31 31 32 33 34 29 23 19 17 17 17 14 13 16 17
34 36 38 41 43 43 42 37 28 34 38 39 35 33 31 32 31 30 29 28 28 29 31 33 34 35 34 32 31 31 32 32 28 23 20 18 17 17 18 15 12 15 19
39 43 47 49 46 45 48 48 47 36 35 41 40 38 34 32 33 31 32 32 32 32 33 34 35 34 31 30 30 31 31 28 23 21 21 20 18 18 19 19 18 17 18
48 50 56 58 57 56 53 49 47 45 37 31 39 37 38 37 37 34 33 32 32 32 33 33 33 31 31 30 29 28 27 25 23 23 22 20 20 21 21 23 22 21 21
61 65 67 66 64 57 54 50 45 42 33 30 32 38 36 41 42 41 38 34 32 31 29 29 28 26 23 23 24 26 26 24 24 23 22 21 21 22 24 26 26 24 24
74 73 69 51 33 29 32 29 26 35 31 42 39 35 39 43 43 35 36 33 30 28 26 25 24 23 23 25 25 25 25 25 24 23 22 21 22 23 25 26 23 22 22

GFSGL_700_spd_069.txt.gz
Wind_Speed
36 36 36 37 35 34 33 30 28 25 22 20 17 15 13 12 13 15 17 16 16 17 19 19 17 16 15 14 14 13 13 13 12 13 14 16 17 20 23 26 28 31 33
36 37 37 36 36 35 34 32 30 27 25 22 21 18 16 13 13 13 16 18 17 17 19 21 22 21 19 18 17 16 17 18 19 18 19 22 24 26 29 32 34 36 37
37 38 37 37 38 36 34 33 32 30 27 26 23 21 18 16 14 13 14 17 19 19 20 21 21 24 23 22 22 21 21 23 25 26 24 26 27 25 29 30 31 31 34
36 39 40 38 36 35 35 35 34 32 30 28 26 23 20 19 17 15 15 14 14 17 21 21 23 24 23 24 25 24 25 26 28 28 26 25 26 27 29 31 35 38 42
35 38 40 38 36 36 36 36 35 34 32 30 29 26 24 23 20 18 15 15 16 16 18 19 22 24 25 26 27 25 27 25 25 27 24 25 28 32 38 42 46 44 40
31 34 36 38 37 38 36 36 36 34 34 33 31 28 26 25 22 20 20 19 19 20 21 21 22 24 25 25 26 25 26 26 25 24 25 30 32 37 41 45 46 43 38
30 28 32 35 37 37 36 36 35 33 33 32 30 29 27 26 24 23 23 23 23 23 23 24 24 24 24 24 23 25 25 24 23 22 27 31 37 41 43 41 39 38 38
32 30 29 32 34 33 34 34 33 32 31 30 30 29 28 26 24 24 25 27 27 26 26 25 24 23 23 22 22 22 20 22 22 26 31 33 36 39 41 40 36 37 42
34 32 31 31 30 30 30 30 31 30 29 28 27 29 28 26 26 26 28 29 29 27 24 22 21 20 18 19 21 21 21 24 26 29 33 36 37 38 35 34 34 39 45
36 31 34 31 28 29 29 28 26 27 26 27 28 27 26 25 26 26 28 30 29 26 23 21 21 21 21 23 24 25 25 26 29 32 33 33 34 34 31 33 36 40 44
31 32 28 28 27 24 23 23 24 25 25 27 26 26 27 26 25 26 27 30 27 25 24 23 24 24 26 28 29 29 29 30 32 32 32 31 30 29 31 33 37 41 46
35 31 29 26 24 23 23 24 24 24 25 25 26 26 26 26 26 27 28 30 28 29 28 28 28 29 30 32 32 32 33 33 33 32 32 30 26 27 28 31 36 42 46
37 32 31 31 31 28 27 26 23 22 22 24 23 22 22 23 24 26 28 29 31 32 32 33 33 34 35 36 37 37 36 35 34 33 32 29 26 25 28 30 35 41 43
40 36 34 36 35 33 31 29 25 21 22 20 20 19 17 17 17 18 22 26 29 31 32 33 35 35 36 36 37 37 37 37 36 35 31 28 26 25 27 30 34 38 38
42 38 40 42 39 37 35 32 28 25 27 23 23 24 22 21 18 20 19 18 19 21 25 29 31 33 34 36 37 38 38 37 35 33 30 28 24 25 26 29 33 36 35
47 44 45 37 32 37 33 29 29 28 28 27 26 25 24 23 24 25 24 24 24 26 28 29 29 30 31 32 34 35 36 35 33 31 31 28 25 25 25 28 32 34 32
37 32 23 20 28 26 27 33 30 30 30 31 30 28 28 29 29 31 32 31 32 32 33 34 33 33 34 35 35 35 33 31 31 30 30 28 27 25 25 27 29 31 29
25 29 29 31 25 22 21 24 24 25 27 29 28 27 28 31 32 34 35 38 38 39 36 36 35 35 35 36 36 34 32 30 30 31 31 29 27 25 24 26 27 29 25
27 27 27 25 22 24 26 29 31 35 39 41 42 42 42 40 41 41 42 41 40 38 35 36 36 36 34 32 33 33 32 31 31 32 32 29 27 25 24 25 26 27 24
32 31 30 29 30 32 29 27 26 27 27 25 24 24 26 29 33 36 37 37 36 34 34 35 36 37 36 33 31 31 32 31 32 33 32 30 27 26 25 25 24 25 22
33 33 32 32 32 31 29 27 26 26 25 24 21 21 19 17 20 25 30 33 34 34 34 35 37 37 36 34 32 31 31 31 32 32 31 30 28 27 27 25 23 23 22
33 33 34 35 34 33 30 30 31 33 35 35 34 32 31 27 26 26 26 30 34 35 36 36 37 38 36 35 33 33 32 32 32 33 32 31 30 29 28 24 21 21 21
33 35 36 36 36 35 35 34 33 35 36 34 31 29 28 28 30 32 34 36 34 34 36 37 36 35 34 33 33 34 34 34 35 35 34 32 32 29 26 23 21 20 21
39 38 38 38 36 37 37 36 36 37 39 37 37 39 40 38 32 30 34 37 38 38 38 37 36 35 36 35 35 35 35 35 33 34 34 33 31 28 27 25 23 21 22
49 45 48 46 45 44 42 41 41 42 44 43 44 46 50 51 43 31 34 36 39 38 38 37 37 39 36 34 35 35 34 34 34 33 32 31 30 29 28 27 25 23 25
53 50 49 50 50 49 50 52 51 50 48 51 54 52 52 52 45 37 34 36 40 36 39 39 39 38 36 37 34 35 36 36 34 34 33 33 31 30 28 27 27 26 27

GFSGL_700_spd_072.txt.gz
Wind_Speed
38 39 38 38 37 35 34 31 29 27 26 23 19 16 13 11 11 11 14 15 14 16 16 15 14 14 14 13 13 12 12 13 13 14 17 19 20 23 26 30 33 36 38
33 35 36 36 38 39 36 34 32 30 29 25 22 19 16 14 13 12 14 16 15 16 17 18 18 18 17 17 17 17 17 18 19 18 20 24 27 27 30 31 33 34 37
34 34 35 37 39 39 36 34 34 32 30 28 25 22 19 17 16 14 14 16 17 17 18 20 21 22 21 21 21 21 22 24 25 26 24 26 28 28 30 30 32 32 34
33 35 36 35 36 36 35 35 35 34 33 30 27 25 23 21 19 18 16 15 16 18 20 20 22 23 24 25 26 26 27 27 28 28 28 26 24 25 28 33 38 43 46
31 32 36 35 34 34 36 36 36 36 34 32 30 28 26 24 22 20 18 17 16 16 18 20 22 23 24 26 27 26 28 28 27 27 24 23 25 29 35 38 40 42 45
32 33 31 34 35 35 36 37 38 37 35 34 32 30 28 26 23 21 20 19 18 18 18 19 20 22 24 25 26 27 27 28 25 23 22 23 26 32 37 42 45 43 39
28 32 33 32 35 37 36 36 37 38 36 35 34 32 29 27 25 24 23 24 23 22 21 22 23 24 24 25 24 25 25 24 22 19 20 23 28 33 38 43 44 42 40
33 30 26 28 32 35 37 36 36 37 37 34 34 31 30 28 26 26 26 28 28 27 25 24 25 25 25 24 24 25 25 23 22 20 23 25 29 33 37 41 42 40 34
40 32 27 27 28 32 36 36 35 37 36 33 32 31 30 28 28 28 29 31 31 30 28 27 27 26 24 24 24 25 22 21 21 23 26 28 30 34 37 38 37 35 36
38 35 32 27 26 29 32 33 32 33 32 32 31 32 30 28 28 28 31 33 34 31 29 28 26 24 22 22 24 24 23 23 26 28 30 31 33 34 36 35 33 33 36
34 40 40 34 27 28 29 30 31 33 32 31 31 30 30 29 29 29 30 33 31 29 26 25 24 23 23 24 26 27 27 29 31 32 33 34 35 35 35 34 32 32 34
36 38 42 37 31 29 31 31 33 32 32 32 32 31 30 28 27 27 28 29 26 26 24 24 25 25 25 27 30 31 32 34 35 35 36 36 36 35 34 32 30 30 32
38 36 38 38 37 35 34 33 31 31 31 31 31 31 30 28 27 26 27 28 29 28 27 27 29 30 30 32 34 34 36 38 38 37 37 37 37 35 33 32 29 28 30
38 36 40 38 34 34 31 32 34 34 32 30 28 26 25 22 22 22 24 26 28 29 28 28 30 32 33 34 35 36 37 38 39 39 38 38 37 35 33 30 29 28 29
40 40 44 37 35 34 34 34 34 33 29 26 24 21 20 21 20 19 20 19 18 18 20 23 26 27 29 32 33 35 37 38 38 38 38 37 37 35 31 29 28 27 27
49 48 46 42 40 39 38 37 37 36 35 33 32 29 25 25 24 22 22 20 20 20 22 23 23 25 28 30 31 32 34 35 35 36 35 35 34 33 31 29 28 26 26
47 53 52 46 42 42 42 42 38 36 37 34 32 31 28 25 25 24 25 25 26 28 30 29 29 30 30 34 36 36 36 36 36 35 34 32 31 31 29 30 28 26 25
58 46 46 46 44 44 47 48 41 28 36 33 29 30 29 29 29 30 30 31 32 34 33 33 34 36 37 37 38 38 37 36 36 34 33 32 31 31 30 30 28 27 25
38 39 40 44 47 49 43 49 41 30 30 26 29 28 27 28 30 31 33 34 36 38 38 38 39 39 37 37 37 39 37 35 32 32 33 32 31 32 32 30 29 28 27
28 34 45 38 37 34 39 36 29 26 24 26 25 23 25 28 31 34 38 42 44 45 43 40 37 35 34 35 36 37 36 35 33 32 31 32 32 33 33 32 31 30 28
24 27 28 27 31 36 42 36 34 29 23 20 20 22 23 23 22 20 20 24 28 30 30 29 30 32 32 31 33 34 34 35 35 34 33 33 33 33 33 34 32 31 30
22 26 32 34 35 32 30 28 26 25 25 26 25 26 26 29 29 28 28 29 28 26 24 26 28 31 32 31 31 32 34 35 35 36 34 35 34 35 35 34 34 34 32
22 21 23 25 27 28 29 30 31 32 31 31 30 30 30 30 31 34 32 25 25 30 32 32 33 33 31 31 32 32 33 33 35 35 34 33 36 37 37 36 37 36 33
31 28 27 27 28 30 31 32 34 35 36 36 35 34 32 31 30 33 36 37 37 38 36 36 37 37 37 36 33 32 34 35 36 37 38 37 38 40 39 38 37 35 34
46 43 40 35 34 34 33 35 38 40 41 40 39 38 36 36 36 36 39 43 45 45 44 40 39 40 41 40 39 35 34 34 36 37 36 35 37 38 39 37 37 37 37
47 49 52 48 47 46 44 44 44 44 44 44 45 44 45 44 43 44 46 46 49 50 50 49 42 42 42 43 41 40 39 38 36 35 37 36 37 39 39 40 40 39 35

GFSGL_700_spd_075.txt.gz
Wind_Speed
35 32 34 33 34 35 34 32 30 27 24 22 19 16 13 11 10 9 11 12 10 12 12 11 11 11 10 9 9 9 9 10 11 12 16 19 22 26 26 29 32 33 35
34 34 33 33 33 36 37 34 32 30 27 24 22 19 16 13 12 11 11 13 13 13 13 14 14 13 12 13 13 13 14 16 17 17 19 22 25 27 30 30 29 27 30
32 33 34 36 35 36 38 36 34 31 28 26 24 21 19 17 14 12 12 12 15 15 16 16 16 17 17 17 17 17 18 20 22 25 24 25 26 27 26 26 31 37 42
31 34 33 34 36 36 37 36 35 32 30 28 26 24 22 21 18 16 14 14 14 17 18 18 18 20 20 20 21 22 23 25 26 28 28 27 24 26 28 32 37 39 40
28 30 33 31 33 34 35 36 36 34 32 30 29 27 26 25 22 19 17 17 16 17 19 20 20 19 21 22 24 24 25 26 26 26 27 27 27 26 29 33 37 41 42
31 25 27 31 31 33 34 35 36 35 34 32 31 30 29 27 25 22 20 20 20 20 20 19 20 21 21 22 24 24 25 26 26 26 26 24 23 26 30 34 40 44 45
35 32 30 26 30 32 33 34 35 36 35 34 33 32 30 28 27 24 23 23 23 21 21 21 21 21 21 22 23 24 24 25 24 25 22 21 23 26 29 33 38 42 45
37 33 33 29 26 28 33 34 35 35 36 35 33 33 31 29 29 27 25 27 27 26 24 23 23 23 23 24 24 25 24 24 24 24 23 22 25 28 30 34 37 41 41
42 35 32 28 27 28 30 34 35 34 35 34 33 33 32 29 29 28 28 29 31 29 28 27 26 25 24 24 27 26 24 22 22 22 23 25 28 31 33 37 40 41 39
44 41 36 32 28 25 25 29 32 34 32 32 33 33 32 29 29 28 30 32 34 32 30 29 28 27 25 24 26 25 23 21 22 23 26 28 31 32 34 38 40 40 38
42 48 42 37 31 26 24 26 28 30 32 32 32 33 33 30 29 30 31 33 35 34 31 29 26 25 25 24 24 24 22 24 25 27 29 31 33 36 38 40 39 39 37
34 44 47 44 36 34 27 26 29 30 31 32 32 34 33 31 31 31 32 33 33 33 28 24 22 23 22 23 24 24 26 28 29 31 34 36 38 38 40 41 39 37 34
33 43 42 45 44 38 32 27 31 31 33 32 31 33 31 31 31 30 29 30 29 28 25 23 23 23 24 24 26 30 31 33 35 37 39 39 39 40 41 40 38 36 32
38 41 44 44 49 43 37 31 30 32 33 32 32 31 31 31 28 27 28 28 29 30 27 26 27 28 29 30 31 33 35 37 39 40 40 39 39 39 39 37 35 35 29
40 42 46 44 47 48 42 37 36 36 36 35 33 31 30 29 27 25 25 26 27 27 27 26 27 28 27 25 25 26 29 31 34 35 35 34 34 35 35 36 34 32 30
43 43 46 44 44 46 44 42 41 40 37 36 36 35 31 29 26 23 23 24 21 19 20 20 19 18 18 19 21 24 27 30 31 32 34 35 34 34 35 34 32 29 30
46 45 43 44 45 43 39 37 36 38 39 38 36 32 31 29 28 28 27 27 26 23 22 23 24 25 26 26 29 32 33 33 34 35 36 35 34 35 34 32 29 29 29
48 50 43 40 40 45 42 40 39 41 40 39 36 36 35 31 29 29 27 30 30 27 27 28 31 33 32 33 35 38 39 39 36 35 36 34 33 33 32 31 30 29 29
39 41 47 49 51 47 46 46 43 40 37 38 38 37 37 32 28 27 28 29 32 33 35 36 37 38 39 40 41 40 39 38 37 36 35 34 32 33 30 29 30 30 30
40 43 46 46 47 47 51 45 45 43 41 38 27 35 37 39 28 27 28 31 33 35 37 41 43 45 47 48 45 42 39 33 33 35 34 33 32 33 32 30 31 31 30
25 34 38 35 36 35 41 39 30 25 26 27 31 37 36 38 35 33 25 23 21 20 20 24 30 35 39 40 37 34 33 32 31 32 32 32 33 34 31 31 35 33 33
14 24 25 37 45 36 38 27 30 23 36 38 29 29 43 40 32 29 25 24 27 26 25 25 24 27 29 30 32 32 33 33 33 32 31 31 32 33 33 34 37 38 33
17 16 14 20 29 40 36 34 42 29 23 17 17 23 36 36 31 28 28 29 31 32 31 26 21 24 24 27 33 36 36 36 35 33 32 31 32 33 33 34 36 37 38
20 18 19 17 17 19 27 27 26 25 22 21 23 21 25 28 32 34 29 28 29 30 33 36 35 35 34 32 32 34 36 38 38 35 35 34 33 33 33 37 38 35 41
36 32 27 25 23 24 26 28 32 34 42 46 42 37 35 33 33 34 34 32 32 34 35 35 38 40 40 41 39 36 36 36 35 36 38 38 38 37 36 38 37 36 38
36 37 38 38 37 36 35 34 34 33 34 35 36 37 38 39 40 40 41 41 40 40 41 42 43 42 43 41 40 40 39 41 42 41 38 41 39 39 39 37 37 38 38

GFSGL_700_spd_078.txt.gz
Wind_Speed
31 30 30 29 29 30 29 28 25 23 21 23 14 12 10 9 7 7 6 7 7 7 7 7 8 8 8 7 7 6 5 7 7 8 13 16 20 25 28 28 26 23 24
28 31 30 30 29 30 32 31 29 27 24 23 20 16 13 11 10 8 7 7 7 8 8 9 9 9 10 10 9 10 9 11 12 13 16 20 22 23 24 26 24 31 35
25 32 33 32 31 31 31 31 31 30 26 24 22 19 16 14 12 10 9 9 9 10 10 10 11 12 12 12 12 13 14 15 17 19 19 19 21 22 22 24 30 33 36
24 27 31 32 32 32 32 32 32 31 30 26 24 22 20 18 16 14 12 11 11 11 12 12 13 14 15 15 16 16 17 19 22 23 24 24 21 20 24 27 30 33 35
26 23 25 29 30 32 34 33 33 32 31 29 27 25 23 22 20 17 15 14 13 13 13 13 14 14 15 17 18 19 20 21 22 22 22 22 22 23 24 25 28 32 37
27 23 22 24 29 30 33 35 34 34 32 31 31 28 26 24 21 19 17 18 17 17 16 15 14 15 15 16 18 19 20 21 22 22 22 23 21 23 25 26 29 33 36
31 27 24 24 26 29 30 32 33 34 34 32 31 30 29 26 24 22 21 20 21 20 19 18 18 17 16 17 18 19 20 21 22 23 23 21 21 22 24 28 31 34 37
33 32 28 25 24 26 30 31 31 32 34 34 32 31 29 28 26 25 24 23 23 23 21 20 19 18 18 19 20 22 22 22 22 24 24 23 22 23 26 29 31 35 37
34 36 33 25 27 26 28 32 32 32 32 33 33 32 31 29 27 27 28 27 26 25 24 23 23 22 20 21 24 25 24 22 21 21 21 20 21 24 27 30 34 37 38
29 37 40 34 28 26 27 27 29 32 31 31 32 32 31 30 29 29 30 30 30 29 28 26 26 24 23 23 25 26 26 22 22 21 21 22 24 27 29 33 37 39 41
30 28 36 40 33 29 29 31 31 30 31 32 32 32 32 31 30 31 30 32 32 31 30 27 25 25 26 26 27 27 24 23 21 21 22 23 26 30 31 35 38 39 39
34 30 30 38 42 35 31 30 30 31 31 33 33 33 33 31 31 31 32 33 31 32 30 27 26 26 24 24 25 25 24 24 25 24 25 27 31 33 36 39 39 39 38
38 33 27 34 41 42 37 32 29 29 32 32 32 33 32 31 31 32 32 31 30 32 31 29 27 25 23 21 21 22 24 26 27 28 30 33 35 37 37 39 37 35 32
34 35 31 28 35 42 43 39 36 31 28 31 32 32 31 31 29 29 29 29 29 31 29 26 26 26 25 24 23 24 27 28 31 33 35 36 37 35 33 30 30 32 32
38 36 37 34 32 40 42 47 43 37 28 26 30 30 31 30 29 28 28 28 25 25 27 28 27 27 26 26 27 28 28 27 28 28 28 29 30 30 31 30 31 32 31
36 39 38 37 37 40 42 45 46 41 34 28 26 29 31 31 31 28 27 27 23 23 26 27 26 25 25 23 22 20 19 22 24 26 28 29 30 32 33 33 31 32 31
37 40 40 42 41 42 45 45 48 46 42 35 34 34 36 33 28 26 24 23 23 24 24 22 21 19 18 19 20 21 25 27 30 33 34 33 33 34 35 32 32 29 29
35 36 38 41 44 40 42 46 48 48 44 38 38 36 31 28 27 26 24 25 27 27 26 23 23 23 24 25 25 27 30 33 35 38 37 35 35 35 34 32 31 29 28
39 35 38 41 41 41 35 42 40 40 38 36 35 33 32 30 30 29 30 28 29 30 30 29 25 27 29 32 32 33 35 38 40 42 42 37 36 36 35 31 31 29 27
33 38 33 40 44 46 40 37 35 37 40 38 39 36 34 32 30 31 32 32 29 29 30 30 32 34 34 34 37 41 44 41 38 37 36 34 34 35 34 30 31 28 29
42 34 43 49 44 51 44 47 41 39 40 34 23 21 20 25 28 26 25 26 30 30 29 33 33 34 32 28 27 27 28 27 30 29 30 30 33 35 35 31 29 30 27
38 44 41 37 46 53 50 48 45 38 36 31 23 17 20 25 28 31 29 23 22 26 26 30 27 24 24 25 24 19 19 21 22 24 28 29 29 31 34 31 30 29 30
13 21 33 46 44 43 39 41 38 34 39 37 29 16 14 19 25 41 52 40 30 35 32 28 27 27 27 29 26 22 21 23 23 24 25 24 26 28 30 30 29 30 31
16 13 13 13 11 22 35 28 23 32 36 37 32 32 41 30 36 35 39 44 45 39 34 31 29 29 29 31 34 34 32 28 27 28 28 29 29 31 31 32 31 30 30
23 21 20 16 13 11 8 20 46 44 32 35 47 42 42 38 38 39 38 38 39 38 34 32 32 32 32 33 33 35 36 36 34 32 33 34 34 34 35 34 32 34 34
28 30 27 25 26 31 19 16 18 20 24 32 42 45 50 48 44 41 40 40 41 38 35 35 36 37 38 38 39 39 40 39 39 39 38 38 33 44 39 40 41 40 41

GFSGL_700_spd_084.txt.gz
Wind_Speed
33 31 29 28 28 27 26 22 20 19 16 14 13 13 12 11 11 11 10 10 10 11 12 13 13 13 12 12 13 11 9 7 5 4 6 10 12 13 14 16 17 18 23
31 34 34 30 29 28 28 25 23 21 19 16 14 13 12 11 10 10 10 11 12 12 12 13 14 15 14 14 13 12 9 7 6 5 6 9 11 13 14 16 17 18 22
24 33 36 35 34 33 30 28 26 24 22 18 17 16 14 12 11 11 10 11 13 14 15 15 15 16 15 14 14 13 12 11 10 9 8 10 9 12 13 15 15 18 21
28 27 35 37 36 35 33 31 29 28 27 24 20 19 18 16 15 13 12 12 13 14 15 16 17 16 16 16 15 14 14 12 13 13 12 11 10 11 15 15 14 17 19
27 28 30 33 36 37 37 35 32 31 30 28 25 23 23 23 20 17 15 14 13 14 14 16 16 17 18 18 18 16 16 15 15 15 14 13 11 12 15 14 16 17 20
25 24 25 30 33 37 38 38 37 34 32 32 31 28 26 24 22 20 19 18 17 15 14 14 15 17 17 17 16 16 17 16 15 15 15 14 12 12 13 15 16 18 21
30 30 28 25 29 32 34 38 37 37 34 34 34 32 30 27 25 24 23 23 22 20 18 17 16 15 15 16 16 17 17 16 15 15 15 12 14 14 14 16 16 20 22
43 30 29 28 21 26 32 33 36 37 37 34 34 34 33 31 29 28 27 27 26 24 22 20 19 17 16 17 18 18 16 16 15 16 18 16 16 15 16 16 17 20 23
41 37 36 29 24 22 29 30 31 34 36 36 34 35 36 34 33 31 31 30 29 27 25 23 22 20 18 19 19 18 18 16 16 19 21 20 18 17 16 16 17 22 24
31 36 37 29 27 22 24 28 26 29 31 32 34 35 35 35 34 34 33 33 32 30 28 27 25 23 21 23 24 23 23 16 21 22 22 21 19 16 17 19 20 23 26
35 43 60 41 27 24 15 19 26 26 27 29 30 31 33 32 33 34 35 36 34 32 31 28 26 25 24 24 25 26 24 22 23 23 22 20 18 17 18 20 22 25 26
22 21 43 31 34 26 25 22 23 28 28 27 28 30 31 31 32 34 35 36 33 33 32 28 27 26 26 27 29 25 24 25 23 23 21 18 17 18 20 22 23 25 24
28 34 31 29 25 25 28 28 26 27 29 30 29 27 30 32 32 32 33 35 34 35 33 30 29 28 28 28 28 26 25 25 25 24 21 19 18 20 21 22 22 20 21
21 27 31 34 32 29 28 24 28 30 30 31 31 27 26 28 31 33 33 33 33 35 33 31 30 30 29 28 28 26 24 25 26 26 23 20 20 21 22 19 18 19 21
24 25 28 29 26 23 22 21 24 26 31 33 31 30 28 25 24 28 30 32 32 32 31 33 34 31 28 26 25 23 23 25 26 24 23 22 23 20 17 18 20 23 23
24 28 23 28 33 26 26 18 23 23 24 32 36 35 29 24 21 24 27 28 30 31 33 36 34 30 28 25 25 24 25 26 25 24 24 24 20 18 20 22 24 25 26
27 30 25 28 31 37 30 25 23 23 24 26 33 38 37 32 27 24 25 27 30 31 34 34 32 29 24 23 25 25 26 26 26 25 24 22 22 23 25 26 27 28 29
31 33 31 32 35 39 37 35 32 28 28 29 27 30 39 38 34 28 26 27 29 29 28 28 24 22 23 23 23 24 22 21 22 22 23 23 25 26 29 29 32 35 34
34 33 36 37 41 42 40 42 43 42 37 33 34 34 35 34 38 36 31 28 26 27 24 23 23 23 25 26 25 26 24 23 24 25 25 27 28 28 29 33 31 29 27
35 33 33 39 42 45 45 43 45 49 48 44 40 37 31 32 33 37 35 33 29 26 29 29 30 31 31 31 30 29 29 28 27 27 28 28 27 27 27 26 27 27 25
33 30 32 31 41 44 46 50 49 48 48 51 47 44 35 34 38 36 41 38 32 31 35 34 34 33 32 30 31 32 30 31 29 27 27 27 24 23 24 26 25 26 27
31 26 27 31 33 43 43 45 50 51 48 49 48 43 40 38 37 40 41 38 38 32 35 37 38 37 36 35 33 31 31 30 29 25 23 25 26 28 26 26 26 25 25
25 24 25 28 33 32 40 37 38 34 34 29 32 36 38 41 40 41 41 37 46 41 41 42 38 37 37 35 33 31 32 34 31 29 32 31 29 27 28 27 27 26 27
22 22 21 25 27 29 30 37 27 28 29 37 37 35 40 42 47 46 40 37 43 41 41 37 33 30 27 31 32 35 39 41 40 35 37 35 33 33 33 32 30 31 29
23 22 19 19 24 26 29 33 33 30 34 31 23 25 32 34 29 26 33 36 36 37 35 34 35 36 35 36 36 37 33 33 36 36 37 36 38 38 40 36 35 37 34
25 22 24 21 15 18 23 27 37 35 26 24 25 23 23 28 27 20 29 41 33 26 23 33 37 40 39 36 36 39 43 43 40 40 42 39 36 37 40 40 39 40 39

GFSGL_700_spd_087.txt.gz
Wind_Speed
27 28 27 26 26 27 26 24 22 22 21 19 17 16 15 14 13 12 12 12 13 14 14 14 14 15 17 18 16 13 12 11 9 7 6 8 10 11 11 12 13 14 17
25 29 30 28 27 27 28 26 25 24 23 20 19 19 17 16 15 13 13 13 13 13 14 14 15 16 15 15 15 15 14 13 11 10 9 10 12 13 12 12 13 14 17
23 24 30 32 31 29 28 27 28 28 26 24 22 21 20 18 15 15 14 14 15 15 16 16 17 18 18 18 18 17 16 16 14 12 10 12 11 14 13 14 14 14 16
28 28 28 31 33 31 30 29 29 29 29 28 26 25 24 21 19 18 17 16 16 17 18 18 19 19 20 21 21 21 20 19 17 15 13 12 12 14 15 15 11 13 15
33 30 29 29 32 33 34 33 31 31 30 30 29 28 28 26 24 22 20 18 18 18 19 20 21 22 22 23 23 21 22 21 20 19 16 14 12 14 16 15 14 13 15
31 31 28 29 31 35 35 34 35 34 33 33 32 31 30 30 28 26 24 23 21 20 20 20 21 23 23 23 24 23 23 23 21 19 18 16 14 15 16 15 14 14 15
31 32 31 31 34 33 34 35 35 36 37 37 37 36 34 32 31 30 28 27 26 24 22 22 22 21 22 23 23 24 24 22 20 20 18 16 16 16 16 15 13 15 17
44 42 37 31 37 35 34 34 34 35 38 39 38 38 38 35 33 32 31 32 30 28 26 25 24 23 22 22 23 23 22 21 20 20 20 18 19 16 17 17 15 15 16
55 53 45 40 37 34 35 31 30 32 34 38 38 38 39 37 35 34 34 35 34 32 30 29 28 26 24 24 25 23 24 21 21 20 21 22 21 19 20 18 17 17 17
38 40 48 43 40 36 35 32 30 29 28 31 36 38 37 37 37 35 36 37 38 36 34 32 31 29 26 26 27 26 24 19 24 24 24 25 23 20 21 21 19 17 18
31 41 42 44 39 35 35 31 30 30 29 29 32 34 36 36 37 37 37 40 40 37 36 33 31 30 28 28 29 30 27 25 27 27 26 25 24 23 22 22 20 18 20
26 32 34 49 46 35 37 31 33 32 33 31 32 34 35 33 32 35 38 40 40 39 36 33 31 30 31 31 33 31 30 30 30 28 27 24 23 22 22 21 19 20 21
16 30 29 26 30 43 45 31 35 32 32 33 33 33 33 32 30 29 31 34 36 38 36 33 31 32 33 34 34 32 32 31 30 29 26 23 22 22 21 20 21 21 20
11 16 31 36 34 27 34 42 44 35 33 33 34 32 31 32 31 30 31 32 32 34 35 33 33 35 35 34 33 31 32 30 30 28 26 24 23 22 22 22 21 20 18
14 16 18 23 26 28 38 34 30 28 28 29 32 31 33 31 27 29 30 30 30 31 30 31 33 34 34 34 32 31 30 30 30 28 28 26 25 25 23 23 22 20 21
26 19 18 20 24 20 30 25 22 26 29 32 31 34 35 32 30 30 30 31 32 32 33 34 36 35 34 31 31 30 29 29 28 28 27 27 26 26 25 25 23 22 24
40 30 24 19 26 31 33 31 30 29 30 33 30 27 31 31 31 31 28 29 31 33 36 36 36 35 32 31 29 29 29 27 27 28 27 27 28 28 26 24 24 25 26
51 42 31 28 25 32 34 38 43 35 27 30 27 24 21 23 32 36 33 30 30 30 32 34 33 32 31 30 29 27 27 27 28 28 28 29 28 26 25 25 26 28 28
52 51 38 36 35 31 36 35 38 43 40 35 29 26 24 22 23 26 31 35 35 30 31 31 31 29 29 29 30 29 30 31 29 29 28 29 27 27 27 28 29 30 30
40 47 46 41 42 38 35 37 39 38 50 44 37 36 33 30 25 22 27 33 38 36 32 31 32 31 30 32 32 33 34 32 31 31 31 31 30 30 30 29 29 28 26
37 43 46 41 44 44 39 37 41 43 43 46 41 38 38 36 36 31 30 33 37 39 39 35 33 32 33 35 35 33 33 33 33 33 32 32 34 33 31 28 24 25 26
35 39 41 42 43 45 42 40 39 41 42 42 43 42 38 37 38 34 37 37 38 38 42 40 40 38 35 33 35 36 34 34 35 35 36 35 34 32 25 25 28 29 32
34 37 38 38 36 41 40 39 39 39 43 43 43 36 34 36 36 39 40 40 35 38 36 41 42 38 37 35 45 42 39 40 42 39 38 37 34 33 30 32 34 34 31
35 35 33 34 34 36 33 32 33 34 38 40 36 33 26 32 35 30 33 39 36 33 35 39 42 49 52 50 46 45 41 42 41 37 35 32 29 28 30 31 33 33 35
35 32 29 29 29 28 28 26 25 28 31 32 29 31 31 29 23 26 31 33 35 37 36 42 46 44 39 42 38 41 42 39 36 36 35 34 31 28 30 31 34 35 36
31 25 25 25 26 20 22 22 23 25 23 26 30 32 29 23 27 22 25 27 27 29 27 26 28 34 34 24 23 32 37 38 39 40 39 38 37 35 32 40 39 35 34

GFSGL_700_spd_093.txt.gz
Wind_Speed
23 20 18 15 13 15 18 18 17 17 18 18 16 14 14 14 13 13 12 12 12 13 14 14 16 17 19 20 20 20 19 17 14 12 12 13 15 17 17 19 20 20 21
24 21 21 18 17 16 17 18 20 19 19 19 20 18 17 16 15 15 14 15 15 14 15 15 16 18 19 20 21 22 21 19 16 14 14 15 17 20 21 22 21 21 21
31 29 26 24 22 20 19 19 21 21 21 22 21 20 19 19 18 16 16 17 17 17 17 16 17 18 18 20 21 22 22 21 19 17 15 16 18 21 22 23 23 23 23
33 31 31 29 27 24 23 22 22 22 23 24 24 23 22 22 21 19 18 19 18 19 18 17 17 18 18 20 21 22 22 22 21 20 19 19 20 21 24 25 22 22 21
35 35 30 33 34 33 31 29 27 26 25 26 27 28 26 25 24 22 20 20 20 20 20 19 19 20 19 20 21 22 23 23 23 23 23 23 22 23 26 26 26 23 22
35 32 30 33 37 38 37 35 34 32 30 30 30 31 31 30 27 25 24 23 22 22 22 21 21 22 22 23 23 24 24 25 25 25 25 25 24 25 26 27 25 24 24
28 29 28 31 34 34 37 39 37 37 35 34 33 34 34 33 31 29 29 29 28 26 25 24 24 23 24 25 26 26 26 27 27 27 27 27 26 26 27 26 25 24 24
30 33 25 25 36 37 38 38 37 38 40 38 37 37 37 37 35 33 32 33 33 32 30 28 27 26 26 26 27 28 28 28 28 28 28 27 27 27 28 26 24 24 24
25 33 30 33 28 34 36 39 39 39 38 38 40 40 39 38 38 37 36 37 38 37 35 33 32 30 28 28 31 29 30 27 27 28 29 27 27 27 27 26 24 26 25
27 29 25 23 34 34 33 37 43 40 39 38 37 39 40 39 39 39 40 41 43 41 40 39 37 35 32 31 33 33 33 26 28 30 31 30 28 27 27 26 26 28 27
20 27 31 31 27 34 36 37 40 37 36 41 40 38 39 40 41 40 40 43 44 44 44 43 40 38 36 36 36 37 35 32 32 34 33 32 29 27 28 29 30 31 28
25 22 31 37 34 32 43 43 39 41 40 36 41 42 42 39 39 41 42 43 43 45 45 44 42 40 38 40 41 39 38 38 38 36 34 32 30 29 30 32 32 32 31
32 32 32 25 29 32 40 42 37 39 38 46 43 41 39 40 38 39 41 42 42 44 44 42 41 40 40 42 44 41 41 42 41 39 36 33 32 31 32 33 33 33 33
36 33 30 34 28 22 27 45 38 36 37 35 36 37 36 37 38 38 40 41 40 41 41 41 40 40 41 43 43 43 43 42 41 39 37 34 33 34 33 34 34 34 35
41 39 36 33 32 40 25 30 30 30 30 36 42 37 37 39 37 36 38 39 39 39 37 38 40 40 40 41 41 42 43 42 42 39 37 36 35 35 35 35 36 36 37
37 41 40 35 28 25 22 27 38 40 24 28 35 45 45 36 35 35 37 39 39 39 41 41 38 36 36 36 37 38 41 40 40 40 39 39 38 38 37 36 37 37 37
44 36 41 39 32 27 22 19 27 15 20 33 31 38 48 46 35 37 40 39 39 40 42 41 38 36 35 35 36 36 38 38 39 39 39 39 38 39 38 38 37 37 38
41 44 35 42 36 34 34 27 19 17 15 18 36 41 41 45 45 40 43 42 42 40 40 39 39 36 35 35 36 36 37 37 38 39 39 38 39 39 39 37 37 36 37
51 45 43 38 47 46 37 33 29 28 20 19 22 34 34 35 46 38 38 37 38 40 39 38 36 34 34 33 33 33 35 36 37 38 39 39 39 39 38 35 34 35 36
54 54 50 46 41 45 49 48 38 36 35 31 23 29 37 36 27 26 36 37 37 36 40 40 38 39 38 36 33 31 31 33 34 35 36 37 37 37 35 33 33 35 35
52 53 53 52 50 49 45 50 46 46 42 43 30 24 31 35 42 29 29 28 31 27 31 34 39 37 39 39 39 38 34 33 33 33 33 33 32 33 34 34 35 35 35
47 49 50 51 53 52 49 47 48 47 48 46 40 33 25 33 37 46 40 33 30 44 36 32 24 19 29 32 36 39 39 36 35 34 34 32 32 32 33 34 37 37 37
39 44 46 48 51 51 49 47 47 46 50 48 47 41 32 30 33 35 37 38 31 26 27 39 27 30 31 33 31 36 37 38 36 34 33 33 35 36 34 36 37 37 40
37 40 44 45 46 49 48 45 44 43 43 42 48 43 36 36 31 31 37 39 38 32 32 34 32 33 34 36 36 36 35 35 39 39 39 39 41 43 46 44 41 41 45
28 35 42 46 47 46 44 41 38 38 36 37 44 42 37 37 33 31 32 37 43 42 37 35 34 36 39 39 35 35 38 39 42 43 44 41 42 45 47 51 53 49 40
26 32 39 37 39 35 39 40 34 32 31 30 34 33 33 35 30 30 31 33 36 34 32 33 24 25 27 22 24 32 31 31 37 39 38 37 38 39 39 40 38 36 38

GFSGL_700_spd_096.txt.gz
Wind_Speed
22 24 21 16 12 12 14 16 15 15 14 12 11 10 10 11 12 12 11 11 11 12 13 15 18 19 20 21 21 21 20 20 19 17 16 15 15 18 19 20 22 24 25
26 26 25 23 21 17 14 15 18 17 17 16 15 14 13 12 13 14 14 13 13 13 14 15 16 18 20 22 23 24 24 23 22 19 17 17 17 19 22 23 24 26 27
27 29 29 27 25 23 18 16 17 20 20 20 19 17 15 15 15 15 16 17 16 16 15 16 18 18 19 22 23 25 25 25 23 21 19 18 18 21 22 24 25 26 27
30 32 33 31 28 27 25 23 21 20 22 23 23 22 20 18 17 17 17 18 19 18 19 18 18 19 20 21 23 24 25 25 24 23 21 21 21 22 23 25 24 25 25
31 35 36 35 33 33 31 30 28 27 25 25 26 26 25 24 21 20 18 19 19 20 21 20 20 19 20 21 21 22 23 24 24 24 24 23 22 23 25 26 26 27 25
29 35 38 39 36 33 33 35 34 32 31 30 30 30 30 29 26 23 21 22 21 22 22 22 22 22 21 21 21 22 23 23 24 25 25 26 24 24 25 26 26 25 25
29 31 36 39 37 36 38 37 38 37 36 35 34 33 33 32 31 28 25 26 26 25 24 24 23 24 23 24 23 24 24 25 25 27 26 26 25 27 28 27 26 24 23
20 24 30 37 35 34 35 39 41 42 41 40 38 36 35 35 33 32 30 31 32 31 29 28 27 26 27 25 26 27 27 26 26 27 27 26 26 27 29 27 26 23 23
13 18 28 36 36 31 28 34 39 40 40 40 40 40 39 37 36 34 34 35 37 36 34 33 32 31 28 28 30 30 29 27 27 28 28 27 26 26 28 28 25 24 22
12 11 16 26 40 32 41 29 36 40 40 41 40 40 38 38 38 37 37 38 40 40 38 37 37 36 33 32 33 33 33 28 27 29 31 28 29 28 27 28 24 24 25
19 15 16 19 21 29 32 43 36 37 40 42 41 41 41 38 38 40 39 41 42 42 43 43 41 39 37 36 35 37 36 34 33 34 34 32 31 30 30 28 27 28 28
26 25 22 20 21 25 28 30 34 38 41 43 44 44 43 43 40 40 40 41 41 43 44 44 43 43 40 40 41 40 39 40 40 38 38 36 34 33 31 33 31 29 30
32 31 31 31 31 32 28 28 36 36 41 43 40 43 41 43 36 42 40 39 39 42 43 45 45 44 44 43 43 44 43 45 44 42 39 38 37 36 35 35 34 33 32
35 35 37 37 36 34 33 30 30 35 40 40 42 39 35 46 44 42 41 41 41 40 40 43 44 44 45 45 45 45 45 45 46 45 42 39 38 38 37 36 35 35 36
36 37 37 35 39 39 37 34 35 29 34 32 30 33 40 42 49 48 45 42 37 37 37 39 41 43 43 45 45 44 45 46 46 46 46 43 40 39 39 37 37 36 36
44 39 41 41 37 41 41 40 35 33 38 37 32 32 36 40 44 44 44 40 39 36 41 44 42 42 44 43 43 42 42 44 45 45 46 45 42 41 40 39 39 39 37
48 45 43 43 44 44 44 43 36 31 32 35 41 43 44 39 42 49 43 42 38 39 43 45 44 42 43 42 42 39 38 37 39 41 42 42 41 40 40 41 39 39 38
47 48 47 44 43 45 43 44 42 37 34 29 32 31 36 30 35 44 49 51 44 43 44 44 42 42 42 42 40 40 39 38 38 39 39 38 38 39 39 41 39 36 37
47 48 49 48 46 47 45 44 46 43 37 39 26 21 23 26 36 38 39 42 49 46 44 42 45 46 42 42 42 40 40 40 40 39 39 38 37 37 39 40 38 37 36
43 46 48 49 47 51 48 46 45 49 45 43 42 39 33 24 25 33 32 33 36 47 43 42 44 44 43 40 40 41 41 38 38 38 37 37 36 36 36 36 37 35 35
39 42 46 46 48 52 54 53 50 47 51 51 46 41 44 31 28 30 32 34 35 32 42 44 41 36 40 44 44 43 43 39 36 34 34 35 34 35 36 35 34 33 31
32 36 41 44 47 52 56 56 58 55 50 50 54 50 44 41 34 29 31 32 35 39 27 26 31 41 41 38 37 42 44 42 40 37 36 36 36 35 35 34 34 33 33
26 30 37 41 45 50 54 54 56 58 57 52 50 51 50 46 38 34 32 31 32 35 42 41 27 25 29 34 32 37 41 40 33 32 34 36 37 37 37 35 34 35 36
24 27 33 37 41 47 51 52 53 56 53 52 50 48 48 50 42 38 38 32 33 37 34 37 34 35 31 30 35 33 47 57 39 37 35 33 32 36 36 37 39 39 39
26 25 26 33 37 42 45 50 52 52 52 49 48 46 43 46 46 42 42 35 33 32 36 36 34 30 27 29 31 33 30 33 40 40 39 39 37 41 40 43 45 44 45
24 27 29 31 35 38 41 45 48 47 47 43 41 40 40 43 42 41 39 38 35 32 31 35 37 37 35 34 36 38 35 35 37 36 41 43 45 44 43 41 39 41 42

GFSGL_700_spd_102.txt.gz
Wind_Speed
21 19 17 15 14 13 13 13 12 13 15 7 12 5 4 5 5 6 5 4 5 5 5 6 11 13 13 13 14 14 15 16 17 14 15 16 17 18 17 19 21 23 25
26 24 21 17 16 14 12 13 14 13 12 9 9 4 7 6 5 6 7 6 6 7 7 6 7 10 13 14 15 16 16 17 19 18 17 16 18 18 20 20 21 22 26
28 29 25 21 20 19 16 15 15 15 15 13 12 12 12 10 9 9 9 9 8 8 8 8 9 9 10 12 14 16 17 18 19 20 18 18 18 19 19 20 21 23 25
31 31 35 24 23 23 21 21 19 17 16 17 17 16 15 14 13 12 11 10 11 10 10 10 11 11 11 12 13 14 15 17 19 19 19 18 18 19 20 21 21 21 21
22 26 20 20 23 26 25 24 23 22 20 18 18 18 18 17 16 15 15 12 12 13 13 13 12 12 13 13 13 13 15 15 16 17 18 17 17 16 18 20 22 21 20
22 22 28 25 24 24 27 28 26 24 25 23 22 21 21 20 18 18 18 17 16 15 14 15 14 15 13 14 14 15 15 14 14 15 15 15 16 18 18 21 21 20 18
21 23 25 27 26 25 25 29 30 27 27 27 24 23 23 22 22 21 21 21 20 20 19 18 18 18 17 16 16 16 16 17 16 17 16 16 17 20 21 21 21 20 17
17 16 24 26 22 28 29 28 31 28 30 30 28 27 26 26 25 25 25 25 25 24 24 24 22 20 19 21 20 19 18 18 18 20 19 17 19 20 22 23 21 18 15
8 9 11 17 29 29 24 29 32 33 33 32 29 30 28 27 28 29 29 28 29 28 26 26 27 26 23 23 26 26 24 21 19 21 21 20 20 20 21 23 21 22 17
11 10 10 11 13 18 25 27 34 30 37 37 34 34 34 31 29 32 34 33 32 31 31 30 28 28 28 27 28 28 31 27 26 26 26 26 23 22 22 22 23 24 25
20 20 18 17 16 14 13 17 25 30 31 32 32 32 31 33 32 32 33 34 33 33 34 33 33 32 30 31 32 33 32 30 31 31 32 30 29 27 26 24 26 28 26
26 26 25 23 23 22 20 19 19 21 26 34 36 37 36 35 33 34 34 37 38 38 37 35 34 35 36 35 35 36 35 35 36 35 34 33 32 31 29 28 28 29 29
31 32 33 33 31 30 29 29 27 27 25 23 26 31 39 37 35 32 33 34 42 40 39 39 39 36 38 39 39 39 37 36 37 39 39 36 35 34 34 33 31 31 32
29 29 30 29 31 35 38 37 36 36 34 32 30 29 27 34 37 35 39 33 40 42 43 42 41 39 39 40 41 40 42 42 42 41 40 40 40 39 36 34 34 32 35
26 26 27 28 29 31 33 33 36 38 41 40 37 36 34 29 32 40 43 42 42 45 43 43 44 44 42 39 40 43 44 47 47 46 44 41 40 40 38 36 36 35 35
23 24 25 25 26 28 31 34 37 38 38 39 42 42 40 37 35 32 37 42 41 42 43 45 49 47 49 46 46 45 45 48 51 48 45 43 41 38 38 37 37 36 35
28 28 28 29 30 30 31 32 34 38 41 42 41 42 43 43 40 37 38 37 36 38 38 40 42 44 44 44 44 45 49 47 46 44 46 45 43 33 33 34 33 33 30
32 32 32 32 33 34 34 35 36 36 40 42 44 45 44 45 43 44 40 39 39 41 43 44 42 43 45 49 48 47 46 50 46 49 51 51 38 24 29 30 31 32 32
35 35 35 35 36 37 38 39 39 39 41 42 45 48 47 46 48 45 46 43 40 36 35 37 40 42 43 44 44 48 51 51 47 49 49 54 37 29 40 36 36 33 31
38 39 40 40 41 42 41 42 45 43 42 44 43 45 50 45 46 52 54 46 46 41 39 37 35 36 40 42 41 42 49 53 56 57 51 55 61 43 37 36 34 32 31
41 41 42 45 46 47 46 46 45 47 45 46 45 43 47 42 44 51 58 49 47 47 45 41 37 35 36 40 40 43 39 46 51 43 46 57 38 23 31 33 33 33 35
43 43 43 43 44 46 47 48 49 48 49 49 48 47 41 47 44 49 59 55 47 50 50 50 46 43 40 38 39 45 42 37 34 33 37 34 32 37 38 39 42 42 40
39 41 42 41 41 43 46 47 46 46 48 47 46 47 50 48 53 60 59 50 44 48 52 54 56 51 49 45 39 38 33 30 25 28 27 34 38 39 34 39 41 43 42
37 39 40 40 40 40 41 42 44 45 45 44 46 50 52 54 56 54 48 47 45 46 48 49 53 54 54 52 47 40 38 35 33 27 30 28 29 31 41 40 40 38 43
35 36 36 36 37 37 39 39 42 42 42 45 47 51 50 50 51 48 48 46 45 43 43 42 44 47 48 49 52 46 40 36 33 34 33 30 26 27 31 32 36 40 39
31 27 30 30 31 33 35 38 39 40 40 41 44 46 43 44 43 41 42 42 41 40 40 39 38 39 41 43 48 47 42 39 35 34 36 34 30 28 25 27 30 31 45

GFSGL_700_spd_108.txt.gz
Wind_Speed
22 19 19 20 20 17 15 14 13 15 10 9 9 8 9 8 8 10 10 11 14 16 16 18 24 25 25 26 20 18 21 21 20 18 18 15 14 14 13 14 14 14 15
17 18 18 18 18 18 17 16 14 14 13 12 11 12 12 11 10 10 11 13 13 12 13 15 19 21 22 22 18 17 17 18 19 19 16 14 15 15 16 16 15 14 15
14 20 20 20 20 19 17 15 14 13 14 14 13 12 11 11 11 11 11 11 12 13 13 13 13 15 15 15 15 15 16 17 17 17 15 14 15 17 16 16 16 15 15
2 22 23 25 22 22 21 19 16 15 15 16 15 15 14 14 12 12 10 10 11 11 11 11 11 12 12 14 14 14 15 15 16 16 16 15 16 17 17 15 14 14 15
19 25 32 37 31 27 25 24 21 18 16 14 16 17 17 16 14 15 13 13 13 13 13 13 12 12 14 15 16 15 15 16 16 16 15 15 14 15 16 17 15 13 15
10 15 25 25 27 25 26 30 27 25 22 20 18 17 16 16 16 17 17 17 16 15 13 14 14 13 13 13 13 15 17 17 16 15 14 14 14 15 16 17 17 15 13
9 15 18 22 20 16 26 32 27 27 28 27 24 22 19 18 18 18 18 18 18 17 17 17 16 15 15 16 15 15 16 17 17 17 15 15 14 15 17 18 19 17 16
19 21 19 17 17 14 9 25 31 28 29 30 30 28 26 23 21 21 21 19 18 18 18 18 18 19 19 20 21 19 18 18 18 19 18 17 17 18 19 21 21 20 17
13 16 18 18 17 17 18 15 11 13 19 21 27 28 29 28 27 26 24 23 23 23 22 21 20 20 19 21 24 25 24 22 22 23 24 23 23 23 24 26 23 23 21
10 11 12 11 11 12 15 19 23 26 26 26 27 25 24 26 28 28 28 29 28 26 26 26 27 27 27 26 27 27 28 26 28 28 28 28 27 26 26 28 28 27 26
12 12 11 10 9 10 10 11 12 16 22 28 29 30 28 24 27 31 29 29 28 29 29 29 30 30 31 30 31 31 32 32 29 30 30 29 29 28 27 27 28 30 31
18 19 18 18 19 19 19 19 19 18 17 17 21 26 30 32 33 35 32 32 33 32 31 28 27 31 33 32 31 32 33 35 34 32 30 28 29 29 28 28 29 30 32
25 26 27 28 28 28 27 26 27 27 26 25 23 22 23 25 30 29 31 36 36 35 35 36 37 35 35 37 37 36 35 36 36 37 35 31 32 32 33 32 31 31 33
28 30 33 35 34 34 33 34 36 37 37 35 34 32 31 30 30 32 30 30 31 34 36 39 41 40 38 36 36 37 40 40 39 36 36 35 33 35 35 33 34 32 35
23 24 26 29 31 30 29 29 31 32 33 33 35 38 40 39 39 39 39 38 36 35 34 34 34 37 39 40 40 40 37 38 41 42 41 40 39 36 35 39 38 38 39
21 22 22 22 23 24 24 22 23 24 26 28 30 32 33 36 36 37 36 39 43 42 41 39 39 37 38 40 41 41 39 37 37 40 43 42 40 41 42 39 39 38 37
22 23 23 23 23 23 23 23 23 24 25 26 28 29 31 31 33 38 40 39 40 40 42 43 44 42 42 42 41 39 38 37 38 37 40 41 43 45 43 40 37 39 43
22 23 24 25 25 26 27 28 30 32 32 31 31 32 34 35 35 35 37 36 37 39 41 42 43 44 45 45 45 44 42 40 39 39 38 38 41 40 41 44 43 43 42
21 23 24 26 27 29 30 32 34 36 38 39 38 37 37 40 40 39 39 39 39 38 40 43 44 45 45 46 48 48 46 41 39 38 35 35 35 37 36 37 39 41 43
23 25 26 28 29 31 33 35 38 40 42 43 45 45 44 45 46 46 46 45 44 43 43 44 44 45 47 48 48 49 48 46 43 40 38 36 35 36 37 38 41 39 35
23 25 26 27 29 30 32 34 36 39 41 43 45 48 50 51 50 50 51 50 50 50 50 51 50 50 50 47 47 49 50 49 47 46 43 40 38 37 37 39 40 40 38
23 24 26 27 29 31 33 35 37 39 41 43 45 48 50 52 54 55 56 57 57 57 57 57 56 56 56 56 53 48 48 49 49 49 48 46 42 39 37 37 40 42 38
23 23 26 28 31 34 37 40 43 45 46 47 48 49 51 53 55 56 57 59 60 60 61 61 62 63 61 61 60 60 50 47 47 48 49 49 46 43 41 38 38 37 35
24 25 27 30 33 36 40 44 47 48 48 48 49 50 51 53 55 54 55 59 61 62 62 62 63 64 65 64 64 63 59 50 48 46 48 49 49 47 47 45 41 41 45
25 27 28 30 33 37 41 44 46 47 46 45 45 46 47 49 51 52 53 55 57 58 57 59 61 63 63 64 66 66 63 50 49 48 47 47 47 48 50 51 49 46 42
25 26 28 31 35 37 39 41 42 42 42 42 41 41 42 43 45 46 48 50 53 53 51 52 56 60 63 65 67 66 59 54 48 47 47 45 45 43 44 48 51 52 49

GFSGL_700_spd_111.txt.gz
Wind_Speed
26 23 20 18 18 16 13 12 13 13 11 13 12 10 10 10 10 11 13 15 19 24 23 20 23 24 24 23 23 21 19 21 23 23 22 21 21 20 19 16 15 16 17
27 25 22 22 21 19 16 15 15 15 15 11 12 11 9 10 10 10 11 14 16 19 22 20 19 21 24 24 25 24 22 22 20 19 19 19 20 23 20 17 16 15 16
23 21 21 22 22 22 20 19 17 16 16 15 14 9 9 9 11 11 11 12 13 14 15 16 17 19 19 21 23 22 21 22 22 21 19 18 19 20 19 18 18 16 15
30 14 26 25 22 21 21 20 20 20 19 17 15 15 13 13 13 13 13 12 13 14 14 15 16 16 16 17 18 18 19 18 19 19 18 17 17 17 19 19 16 15 14
17 11 23 26 24 23 22 22 20 19 18 18 19 18 18 18 17 16 16 15 15 16 16 16 16 16 17 18 16 17 18 19 18 19 18 17 15 16 17 18 18 15 14
20 21 21 25 32 28 25 25 24 23 21 20 18 17 19 20 20 20 20 19 18 17 16 17 17 17 17 18 17 16 18 19 18 17 17 17 16 16 17 18 18 17 15
18 15 12 13 17 30 29 28 27 27 28 27 25 22 20 20 19 20 20 22 21 19 19 19 19 18 18 18 18 18 17 18 19 20 19 18 18 20 21 21 21 19 17
19 16 13 17 16 16 11 22 35 29 28 32 28 28 27 26 24 23 23 22 21 21 21 21 21 22 22 23 23 23 22 22 20 22 21 20 21 21 24 25 24 23 21
23 23 20 16 19 17 20 15 15 15 22 26 31 31 31 31 30 30 29 27 27 25 25 25 24 24 24 26 27 26 27 25 26 28 27 25 25 25 26 27 25 27 25
13 18 20 22 22 21 23 25 21 20 13 11 23 29 30 36 35 34 33 32 30 30 29 28 28 28 28 28 29 30 30 29 29 30 30 30 28 27 28 28 28 29 30
11 12 14 16 16 16 16 15 16 21 25 24 27 28 26 25 29 25 28 30 31 29 29 30 30 30 31 32 33 33 33 34 34 33 33 32 31 30 29 29 30 32 33
14 14 15 14 13 13 13 14 15 15 15 14 15 19 21 27 30 30 29 29 40 32 34 33 34 34 34 35 34 34 36 37 36 36 35 33 32 32 32 32 32 33 35
22 22 21 22 22 22 22 22 22 23 23 23 22 22 22 23 23 24 28 31 35 37 37 36 35 35 35 36 38 38 37 40 41 40 38 36 36 34 35 34 36 36 35
27 28 28 29 29 29 29 29 30 31 31 32 33 32 31 31 31 32 31 29 30 30 31 34 37 38 38 41 42 43 41 40 40 38 38 38 40 39 37 36 38 37 39
29 29 29 29 30 31 31 30 30 31 33 34 35 35 36 36 38 40 40 40 39 39 38 37 37 38 38 37 35 35 35 36 40 39 38 39 38 38 38 39 40 41 40
23 24 25 27 28 28 28 29 27 26 28 30 30 29 30 33 34 35 36 38 39 41 40 40 41 42 43 42 41 39 38 37 37 40 41 38 39 39 39 38 39 41 42
22 23 23 24 24 25 26 25 24 25 24 25 27 27 28 30 31 31 32 33 35 37 39 39 40 41 41 43 44 44 44 42 42 39 39 38 36 37 39 40 40 40 41
23 23 24 25 25 25 26 28 29 29 28 28 29 30 32 35 36 37 37 37 37 37 38 37 37 39 41 40 42 42 43 44 46 45 42 41 41 40 40 38 37 38 39
22 23 24 25 26 27 28 29 30 32 33 34 35 34 36 38 39 41 43 45 44 42 43 43 42 42 41 40 41 41 43 44 44 44 44 44 43 42 40 40 39 38 39
23 23 24 25 27 29 31 32 34 36 37 39 41 42 43 44 46 45 47 48 50 51 51 49 49 50 49 48 46 45 43 42 43 44 45 45 45 45 44 42 41 41 40
23 25 27 28 29 30 32 33 35 36 38 39 41 44 47 49 49 50 52 52 53 54 55 56 56 56 56 56 56 55 53 51 48 45 45 45 46 47 47 47 45 45 44
23 25 27 28 30 31 32 33 35 36 37 39 41 42 45 48 51 54 55 55 56 59 60 60 60 60 60 61 61 62 61 59 58 57 53 49 48 48 49 49 50 49 48
24 25 26 28 29 30 31 33 36 38 40 42 45 46 47 48 51 54 57 60 61 62 64 66 66 66 65 65 65 64 65 65 65 65 64 59 55 52 50 51 50 50 50
24 26 26 27 28 30 32 34 36 40 43 46 49 51 52 53 53 54 55 57 60 62 65 68 69 70 70 69 68 68 68 68 68 68 68 68 62 57 54 52 51 52 50
24 25 26 27 29 31 33 35 38 41 45 48 50 50 49 48 47 48 49 52 54 56 58 61 64 65 66 67 67 68 68 68 68 69 70 70 71 58 56 56 53 52 52
24 26 26 27 27 28 30 33 36 39 42 44 46 46 45 43 42 41 42 43 46 47 49 52 54 55 55 57 59 60 62 63 62 62 65 68 67 60 55 55 54 53 51

GFSGL_700_spd_114.txt.gz
Wind_Speed
18 19 17 17 19 16 13 13 11 10 13 10 9 9 9 9 8 8 10 14 18 19 21 20 20 22 22 20 20 21 20 20 21 22 21 22 23 21 21 20 20 18 19
21 24 22 21 20 19 16 14 15 14 13 10 12 12 12 11 10 8 8 9 14 17 21 21 20 19 19 21 21 21 23 24 24 22 20 19 22 23 23 22 22 19 17
27 28 26 23 22 20 18 17 16 16 16 17 13 12 13 13 13 11 10 10 12 13 13 16 19 19 19 19 19 19 21 21 21 21 21 21 21 22 22 23 21 19 18
29 28 27 25 25 23 22 21 19 19 20 19 20 19 16 16 14 12 12 12 13 13 14 14 14 15 16 17 17 17 18 18 19 20 20 19 19 20 21 20 18 18 17
38 27 23 24 27 26 24 22 21 20 20 20 20 19 18 19 17 15 15 15 15 15 16 16 17 17 17 17 17 18 20 20 20 19 18 17 18 19 21 20 20 18 16
19 27 33 19 22 25 25 24 22 21 21 21 21 20 20 21 20 18 17 17 18 18 18 18 18 19 20 20 21 21 22 22 21 20 20 20 19 19 21 21 21 20 17
14 16 15 18 18 25 31 25 23 21 21 22 22 21 21 21 20 20 20 20 20 20 19 19 20 20 21 22 22 22 22 22 21 21 21 21 21 22 23 22 23 23 22
19 20 19 15 12 15 20 25 25 23 25 24 24 27 27 27 23 21 20 21 21 20 21 21 21 22 23 24 24 24 24 24 24 26 25 23 22 23 24 25 25 25 24
19 20 17 15 12 14 12 17 24 25 30 29 33 29 27 34 29 27 26 27 26 25 25 24 24 24 24 25 27 27 27 26 29 30 29 29 28 27 28 28 28 30 28
21 22 21 18 16 17 16 16 17 19 23 21 20 29 34 33 29 28 29 31 32 31 29 29 29 29 29 29 29 30 30 30 31 32 32 33 33 32 31 31 32 33 33
15 16 18 22 24 22 20 20 22 25 27 28 22 18 22 32 41 38 30 37 37 33 32 31 30 30 31 31 31 31 32 32 32 33 32 32 32 34 34 34 34 36 37
14 15 15 13 15 17 20 18 16 15 13 12 13 18 23 27 23 24 28 21 28 35 35 32 31 32 31 32 32 33 34 35 35 31 29 30 33 34 33 34 35 35 37
14 15 16 17 17 18 18 18 18 18 19 18 19 19 20 21 20 23 26 19 23 21 25 29 39 44 34 34 35 36 36 37 38 39 40 39 37 35 37 37 37 37 37
20 21 21 22 23 24 25 25 25 26 26 26 26 26 28 28 28 27 26 26 28 28 26 27 29 32 38 44 37 34 36 37 38 40 41 40 38 35 33 35 35 37 40
25 26 26 26 27 28 29 29 30 31 32 32 31 30 31 32 31 31 32 33 34 35 36 37 37 37 37 38 38 38 38 38 37 36 35 35 36 36 35 36 39 39 39
20 22 24 25 26 26 28 28 28 27 27 27 29 31 31 29 29 29 29 29 30 31 32 34 36 38 40 41 41 40 41 43 43 43 41 40 39 39 38 35 34 35 38
23 22 22 22 22 23 24 25 27 27 25 23 24 27 28 29 28 27 28 28 28 29 31 31 32 33 35 37 38 39 40 41 42 42 42 43 43 42 42 42 40 39 37
23 23 24 23 23 23 23 23 24 24 25 26 27 28 29 31 32 33 34 34 34 34 35 36 36 36 37 37 37 38 39 40 41 42 42 42 43 42 42 43 44 43 42
20 21 22 22 22 22 23 24 25 26 27 28 29 31 32 33 35 36 39 41 41 41 41 42 43 43 44 45 45 44 44 43 41 41 41 42 43 45 44 44 44 44 45
22 22 22 22 23 23 24 25 27 29 30 32 34 36 38 39 39 39 41 43 45 47 49 50 50 50 50 51 52 52 52 51 50 49 48 47 46 45 44 45 45 47 46
25 25 24 24 25 26 27 29 30 31 33 34 36 37 39 41 42 44 46 46 47 48 49 50 52 53 54 55 57 58 58 57 57 57 56 56 55 53 52 50 49 46 46
22 24 25 26 26 27 28 30 31 33 35 36 38 40 42 44 47 48 50 51 52 53 55 58 59 60 60 59 59 59 61 62 62 62 62 62 62 60 59 56 53 51 51
22 24 25 26 26 27 28 30 32 34 36 38 40 43 45 47 49 51 54 56 58 60 61 61 63 66 68 69 68 65 64 64 64 65 67 67 67 66 66 65 63 61 57
26 25 26 27 26 26 28 30 32 33 35 38 41 43 47 50 52 54 56 58 59 61 63 66 68 68 68 69 71 72 71 67 65 65 66 68 68 68 69 69 68 66 63
31 30 28 26 25 27 28 30 32 33 35 38 41 44 47 49 51 52 52 53 54 56 57 58 60 61 63 64 64 65 64 64 64 63 62 63 65 65 66 68 69 69 67
25 27 26 25 25 27 29 31 31 32 34 37 39 41 44 46 47 48 48 47 46 47 48 49 50 50 52 54 55 56 56 55 55 55 57 58 59 60 60 61 61 62 64

GFSGL_700_spd_117.txt.gz
Wind_Speed
14 18 17 16 17 16 14 14 12 11 11 12 11 10 10 10 10 11 11 12 14 17 21 21 19 18 20 19 18 19 21 21 21 21 22 24 23 21 21 22 22 22 22
20 18 21 19 17 18 15 14 16 14 14 15 13 12 12 11 11 11 10 10 11 14 17 19 20 19 17 17 19 20 20 21 23 24 24 22 22 22 21 22 22 22 22
26 21 22 22 21 19 19 17 16 14 14 16 13 13 14 14 13 13 12 12 10 11 12 14 17 19 18 19 18 18 18 19 20 21 21 20 20 21 20 20 21 20 20
30 26 24 26 25 23 22 21 20 19 18 17 16 16 14 14 16 16 15 14 12 12 14 13 12 13 15 16 17 16 16 16 18 19 20 20 20 22 23 20 18 18 18
33 32 29 26 28 26 25 24 23 22 21 20 19 18 20 19 18 17 16 16 15 14 14 14 15 16 17 17 17 17 17 18 20 20 21 20 20 21 22 22 20 18 16
41 35 30 28 27 26 27 27 25 23 22 21 20 20 20 21 20 21 19 18 16 16 16 16 16 18 18 18 19 19 19 20 20 21 21 20 19 21 22 22 23 23 20
32 29 28 36 23 14 21 28 26 23 22 22 20 20 20 19 20 21 21 21 21 20 20 19 19 19 20 21 21 21 21 21 21 21 21 21 22 22 23 24 24 24 24
23 24 22 30 22 23 20 27 30 25 23 22 22 19 19 21 21 20 21 22 21 21 21 21 21 21 22 22 22 22 23 23 24 25 25 24 25 25 26 27 27 27 26
20 16 16 18 18 17 17 14 23 29 23 19 20 22 25 25 24 24 27 27 26 25 24 24 24 24 23 23 24 24 24 25 27 27 28 28 27 28 29 29 29 31 29
17 17 18 18 19 13 14 11 13 19 20 22 25 25 19 22 30 29 25 27 27 29 30 30 28 28 28 28 27 27 28 29 30 30 29 30 30 29 29 30 30 31 31
22 19 16 18 18 15 13 15 13 14 17 22 23 23 25 22 16 18 29 31 29 22 25 29 32 30 32 31 30 29 28 27 29 31 30 30 31 31 30 30 30 31 31
18 17 14 12 15 17 14 15 15 16 17 18 19 17 21 25 22 19 18 22 33 37 25 26 27 30 32 30 28 28 31 29 29 32 33 32 32 32 32 33 34 34 34
10 14 11 15 12 11 13 13 13 16 15 17 17 16 17 17 18 21 20 19 23 24 30 31 29 26 33 36 41 43 40 36 33 34 35 35 35 35 36 37 37 36 34
15 16 16 16 17 17 18 19 19 19 20 21 23 23 23 23 23 24 25 26 28 28 26 29 29 25 29 27 32 35 35 36 37 38 36 34 33 33 32 32 33 34 36
16 19 20 21 21 22 23 24 25 26 27 28 29 29 29 29 29 30 30 31 31 32 32 32 32 35 37 35 36 36 37 36 36 40 41 40 39 38 37 36 35 34 34
14 15 17 19 22 24 25 26 27 28 29 29 30 31 31 32 31 31 30 29 29 29 30 30 31 31 31 32 34 35 37 37 38 39 40 40 40 41 41 40 41 41 40
24 22 21 21 21 21 22 23 24 25 25 24 25 25 26 27 28 29 28 27 27 27 28 28 29 29 30 31 32 32 33 35 35 37 38 38 39 40 40 41 41 42 42
19 21 22 22 20 20 20 20 21 22 23 23 24 24 25 26 27 28 29 30 31 31 32 33 34 35 35 36 37 38 38 39 39 40 40 40 40 40 40 41 42 42 42
16 17 17 18 18 19 18 18 19 19 20 21 23 25 26 27 29 30 32 33 34 37 39 40 41 42 42 43 43 44 44 44 45 46 47 47 46 46 45 45 44 43 43
18 18 18 18 19 19 20 20 20 21 22 24 26 27 28 29 31 32 34 35 37 39 40 42 44 46 48 49 50 50 51 51 50 50 51 52 53 52 52 52 51 51 49
21 21 21 21 21 22 23 23 24 25 26 27 29 30 32 33 35 36 37 38 39 41 43 45 47 48 50 50 53 54 56 55 56 56 56 57 57 58 58 58 58 57 56
22 21 21 22 22 22 22 23 24 25 26 28 30 32 33 35 36 38 40 42 45 47 49 50 52 54 56 58 59 59 59 60 60 61 61 61 61 61 61 62 62 63 62
22 23 22 22 23 24 25 26 27 28 28 30 31 32 34 37 40 42 44 46 48 50 53 56 58 60 61 63 64 65 66 65 64 64 64 64 63 63 63 64 65 65 65
24 24 24 23 22 22 24 27 29 30 30 32 33 36 38 40 43 45 48 51 53 55 56 58 59 61 62 63 64 65 66 68 68 67 66 67 65 62 60 60 59 61 63
31 28 26 27 27 25 26 26 27 28 29 30 32 34 37 40 42 44 47 48 49 51 52 53 55 57 57 58 58 59 59 60 60 60 61 61 61 60 57 56 53 51 51
38 36 29 30 28 25 26 27 27 27 28 28 30 32 35 37 38 38 40 42 44 45 46 47 48 50 50 50 51 51 52 52 53 52 52 52 52 50 50 49 49 50 50

GFSGL_700_spd_123.txt.gz
Wind_Speed
17 16 15 14 14 14 12 11 11 10 9 9 10 12 12 10 11 10 9 10 13 15 18 20 19 21 20 16 16 14 13 16 19 21 21 20 24 22 18 16 15 17 18
18 18 17 16 14 16 16 13 13 12 11 11 11 11 11 10 10 10 10 11 11 13 15 17 18 18 19 17 17 19 17 17 20 20 15 14 17 25 17 16 13 13 16
19 19 19 19 17 17 17 16 15 15 13 12 12 12 10 9 10 10 10 11 11 11 11 12 13 14 15 16 16 15 14 13 15 16 13 13 15 19 24 17 18 15 14
25 24 23 20 21 20 19 20 17 16 16 13 13 14 12 12 12 12 11 12 12 11 11 11 11 11 12 11 11 11 11 11 12 13 12 10 12 13 19 19 15 13 14
31 32 30 25 23 23 22 21 21 18 16 16 16 15 15 14 15 10 10 11 12 12 11 11 11 13 12 12 12 13 13 14 13 11 9 8 13 16 19 16 16 18 16
35 37 37 32 29 27 24 25 24 23 21 22 21 18 19 21 16 14 15 13 13 12 12 13 14 14 13 14 14 14 15 16 15 16 16 17 15 17 19 19 19 19 19
25 33 41 39 39 32 27 26 28 26 24 22 23 22 22 22 18 16 15 15 16 16 15 17 16 13 18 14 17 16 17 18 18 18 18 18 18 19 19 19 20 20 20
15 25 36 40 40 41 29 29 28 29 29 27 25 25 22 20 19 17 16 16 16 17 18 17 18 19 19 18 18 20 19 18 21 20 19 20 22 21 22 23 21 22 21
17 22 22 35 43 44 40 30 32 27 30 30 28 26 23 21 19 18 18 18 18 19 18 20 20 20 21 21 21 23 21 21 24 23 23 23 24 25 26 25 23 24 23
15 18 20 23 27 27 34 29 31 24 18 20 27 26 22 20 20 19 17 18 22 23 23 22 24 25 26 26 26 27 27 27 25 26 26 26 24 23 24 25 26 24 25
10 6 6 8 11 20 24 25 43 27 20 22 25 29 27 25 22 18 16 15 14 15 21 22 20 22 24 23 25 26 27 29 28 26 27 25 24 24 25 30 27 24 27
21 16 11 9 10 8 7 7 16 22 22 16 20 23 24 28 20 18 17 17 19 16 14 17 16 16 20 21 24 31 28 26 29 28 27 29 32 33 33 32 32 33 30
28 20 14 13 8 12 14 19 20 19 19 25 21 15 14 14 14 15 16 13 13 15 14 14 17 20 22 23 23 24 25 25 27 27 29 29 33 30 30 30 32 34 33
25 19 19 17 14 14 13 17 12 11 13 14 14 14 16 12 12 15 15 16 17 18 19 22 24 25 27 27 29 29 30 31 31 30 31 31 32 33 32 34 34 33 34
22 16 14 14 11 11 10 11 12 14 16 16 16 17 17 17 19 20 21 22 24 25 26 27 29 29 29 30 29 29 28 28 28 30 29 27 28 29 29 30 31 31 32
17 13 13 13 14 14 14 15 15 17 19 20 20 21 23 23 24 27 28 28 29 31 30 29 28 27 28 28 27 27 26 28 29 28 30 30 31 31 32 33 33 34 34
9 9 9 13 13 13 14 15 18 20 21 22 21 22 23 23 23 24 25 24 25 25 26 25 24 25 26 28 29 29 30 31 31 33 34 35 36 37 38 38 36 37 39
12 12 14 16 18 19 19 18 18 19 18 18 19 20 21 21 22 22 23 24 24 24 24 25 27 28 28 30 32 33 35 36 38 38 39 39 41 43 42 42 43 45 45
16 19 21 17 15 16 17 17 17 18 19 19 19 19 19 20 21 21 21 23 24 26 27 29 30 32 33 34 35 36 37 39 40 41 43 44 46 47 47 47 47 48 50
18 21 22 23 20 18 16 16 16 17 17 18 19 18 19 20 20 21 22 23 25 27 27 29 30 31 33 34 36 38 40 40 41 43 45 46 47 49 51 52 52 53 52
13 12 15 16 17 18 18 19 19 19 19 20 21 19 21 22 24 25 26 26 27 27 28 29 30 31 33 35 36 38 41 43 45 47 49 50 51 51 51 53 53 54 55
19 17 15 16 17 17 18 20 20 21 21 22 24 21 22 23 25 25 25 27 27 28 28 29 31 33 36 38 41 42 44 46 48 48 49 50 51 53 54 54 54 55 55
25 24 21 19 20 20 17 20 21 22 23 24 24 25 23 24 24 25 24 25 25 27 28 30 32 34 36 38 40 43 45 47 49 51 53 55 55 55 55 55 54 54 54
33 34 34 26 25 22 23 23 24 25 23 23 23 23 24 24 24 26 26 27 28 30 32 33 35 36 38 40 42 45 47 51 53 54 55 54 52 50 50 49 49 48 49
25 26 31 24 29 31 29 26 24 25 24 23 23 24 25 26 26 26 28 28 29 30 32 34 35 36 39 40 43 46 49 52 53 54 53 50 47 44 41 40 39 39 39
33 33 30 35 30 27 30 26 26 26 25 23 24 25 27 27 27 29 30 32 31 31 32 33 34 35 36 38 41 43 45 47 47 47 45 43 41 38 36 35 33 33 31